Weather Roundup
Issued by NWS Chicago, IL

Home | Current Version | Previous Version | Text Only | Print | Product List | Glossary On
Versions: 1 2 3 4 5 6 7 8 9 10 11 12 13 14 15 16 17 18 19 20 21 22 23 24 25 26 27 28 29 30 31 32 33 34 35 36 37 38 39 40 41 42 43 44 45 46 47 48 49 50
000
NZUS59 KLOT 220910
HRRLOT

CHICAGO AREA WEATHER ROUNDUP
NATIONAL WEATHER SERVICE CHICAGO/ROMEOVILLE IL
400 AM CDT MON SEP 22 2014

NOTE: "FAIR" INDICATES FEW OR NO CLOUDS BELOW 12,000 FEET WITH NO
SIGNIFICANT WEATHER AND/OR OBSTRUCTIONS TO VISIBILITY.

* THESE STATIONS ARE NOT UNDER NWS QUALITY CONTROL. THEY ALSO MAY NOT
  REPORT WEATHER SUCH AS PRECIPITATION OR FOG.

ILZ005-006-012>014-019>023-221000-
NORTHEAST ILLINOIS

CITY           SKY/WX    TMP DP  RH WIND       PRES   REMARKS
OHARE          PTCLDY    48  41  76 NW7       30.18S
MIDWAY         PTCLDY    50  45  83 NW7       30.17S
AURORA         CLEAR     42  39  89 CALM      30.20S
LANSING*       PTCLDY    53  44  69 N6        30.18R
JOLIET*        CLEAR     47  43  86 NW3       30.21R
WAUKEGAN       CLEAR     43  40  89 NW5       30.18S
DUPAGE AIRPORT CLEAR     43  40  89 N5        30.18S
WHEELING       CLEAR     46  41  82 NW5       30.19S
KANKAKEE*      CLEAR     48  44  85 NW5       30.18S
MORRIS*        CLEAR     46  45  95 NW3       30.20R
LEWIS AIRPORT* CLEAR     44  43  96 NW5       30.19R
NORTHERLY IS     N/A     54  44  69 N13         N/A
$$

WIZ051-052-058>065-066-070>072-221000-
SOUTHEAST WISCONSIN

CITY           SKY/WX    TMP DP  RH WIND       PRES   REMARKS
MILWAUKEE      CLEAR     44  37  76 NW3       30.19R
KENOSHA*       CLEAR     43  40  89 NW5       30.19S
RACINE*        CLEAR     44  40  85 NW7       30.21R
BURLINGTON     CLEAR     36  36 100 CALM      30.20R
WAUKESHA       CLEAR     36  36 100 CALM      30.20S
WEST BEND      CLEAR     37  36  93 CALM      30.19R
$$

INZ001>003-010>013-019-020-221000-
NORTHWEST INDIANA

CITY           SKY/WX    TMP DP  RH WIND       PRES   REMARKS
GARY*          MOCLDY    55  42  62 N13G18    30.18R
MICHIGAN CITY* NOT AVBL
RENSSELAER*    NOT AVBL
VALPARAISO     MOCLDY    52  42  69 N8        30.17R
$$

LMZ740>746-221000-
SOUTHERN LAKE MICHIGAN

STATION/POSITION TIME  SKY/WX   TEMP WIND        PRES    VSBY
                                AIR  DIR/SP/G
                 (UTC)          (F)  (DEG/KT/KT) (MB)    (MI)
HARRISON CRIB    0900            55   10/ 14/ 18   N/A
BURNHAM HARBOR   0900            54   20/  9/ 14   N/A
CALUMET HARBOR   0900            55  350/ 10/ 17 1020.4S
BURNS HARBOR     NOT AVBL
MICHIGAN CITY    0900            54  350/ 21/ 26   N/A
$$

ABBREVIATIONS USED IN REMARKS
   TC - TEMPERATURE IN CELSIUS
  WCI - WIND CHILL INDEX
   HX - HEAT INDEX
  VSB - VISIBILITY
$$


USA.gov is the U.S. government's official web portal to all federal, state and local government web resources and services.